ROMMA est une association bénévole à but non lucratif. Votre soutien est indispensable : ADHERER à ROMMA ou FAIRE un DON

Voiron - (38, Isère)

Voironnais (300 m)   Longitude: 05° 35' E   Latitude: 45° 23' N Station partenaire n°109
 

Détail journalier du     <<     >>

Température Precipitation Humidité Pression Vent Dir Rafale Dir. rafale Ensol.
Heure (°C) (mm) (%) (hPa) (km/h) (km/h) (min)
01:00 7.3075101803SSO0
02:00 6.907710181SSO5SSO0
03:00 6.807710182SSE8NNO0
04:00 6.707910181SO3SSE0
05:00 6.7077101803SO0
06:00 7.107310182N8NNO0
07:00 6.407510182SSE11SE0
08:00 5.707710182SSE5O0
09:00 8.2069101905NO30
10:00 10.705510192SE10SSE60
11:00 11.605210193S10SSE60
12:00 12.204810184S11OSO60
13:00 13.304110176SSE15SSE60
14:00 14.702910174SSO11SSO60
15:00 15.602910176NO15NO60
16:00 16.102610165N13S60
17:00 15.902710164NO15NNO60
18:00 15.603510152O8NO60
19:00 12.104610163NO10N0
20:00 10.005410162OSO5NNO0
21:00 8.805610161OSO5OSO0
22:00 8.106010172S10S0
23:00 7.406110162N6ESE0
minuit 8.605210163ESE13SE0

Graphique du 05-03-2019

 

Serveur OMMA